STARLINK-33970, 64106

Orbit data source: Space-Track

STARLINK-33970, 64106 is a payload satellite owned by SpaceX/Seattle (US) in LEO that was launched on Fri, 23 May 2025 UTC via an FALCON 9 launch vehicle from the Air Force Western Test Range (AFWTR). Payload-class satellites include a variety of spacecraft equipped with specific instruments for various scientific and technological missions. These include communications satellites like Starlink; space stations such as the ISS; scientific satellites like the Hubble; Earth observation satellites from companies like Planet Labs, Umbra, and HawkEye 360; GPS; miniature CubeSats for education and research; and military/defense satellites.

Loading next visibility...
Identifier
64106, 2025-110L
Orbit
LEO
Country
Flag of USUS
Related business
Manufacturer
SpaceX/Seattle
Mission
Operational Commercial Communications
Bus & Motor
STARLINK V2MO, Unknown motor
Mass
575 kg wet, ~530 kg dry
Launch date (UTC)
2025-05-23 (1 year ago)
Launch vehicle
FALCON 9
Launch site
Air Force Western Test Range (AFWTR)
Object type
Payload
Rocket body
Debris
Shape & HBR
Box + 2 Pan, 17.7 m
Radar Cross Section
36.964 m², Large (>1 m²)

Expand to show TLE details & history
Last TLE update: 1 day ago

TLE from 1 day ago
0 STARLINK-33970
1 64106U 25110L   26170.55538664  .00008138  00000-0  25168-3 0  9999
2 64106  53.1606 272.5440 0001220  75.1199 284.9938 15.34406049 61490
Epoch: 2026-06-19T13:19Z
TLE epoch observation values (Epoch: 2026-06-19T13:19:45.405Z)
Latitude
-0.00009°
Longitude
164.82207°
Altitude
463.371 km
Speed
7.636 km/s
True Right ascension
18h 10m 10s
True Declination
0° 00' 00"
Sunlit
Object was in full shadow at epoch
Visualization orbit readout
Latitude
Unknown
Longitude
Unknown
Altitude
Unknown
Speed
Unknown
Apparent Right ascension
Unknown
Apparent Declination
Unknown
Sunlit
N/A
Visualization observer readout
Local Sidereal Time
07:17:33
Azimuth
Unknown
Elevation
Unknown
Doppler factor
Unknown
Orbital elements
Apogee altitude
463.777 km
Perigee altitude
462.107 km
Semi-major axis
6,841.079 km
Eccentricity
0.00012
Inclination
53.1606°
RAAN
272.544°
Arg. of periapsis
75.1199°
True anomaly
284.9803°
Mean anomaly
284.9938°
Eccentric anomaly
284.98705°
Mean motion
3.8358 °/min
Orbital period
93.85 mins
BSTAR
0.00025168
Loading maneuver chart data...
Computing Atmospheric mass density...
Loading historical data...
Loading historical data...
Loading historical data...
Loading historical data...
Loading historical data...
Loading historical data...
Loading historical data...

Documentation

Showing up to 5 results
|